Location: Voyageurs National Park
(48.5020°N, 92.9292°W)
Time: 05:38:13
(UTC-05:00)

Amateur Radio Satellites - All Passes

Search period start: 29 March 2015 05:08
Search period end: 30 March 2015 05:08
Location: Voyageurs National Park, 48.5020°N, 92.9292°W

Satellite Date Start Highest point End Downlink Frequencies (MHz)
Time Altitude Azimuth
M-CUBED/EXP-1 PRIME 29 Mar 05:13:46 05:17:51 85° 70° (ENE) 05:22:21 437.505
MOZHAYETS 4 29 Mar 05:20:32 05:25:08 60° 260° (W) 05:29:45
ISS 29 Mar 05:23:51 05:27:00 48° 210° (SSW) 05:30:07 145.825
GONETS M04 29 Mar 05:25:48 05:32:39 25° 57° (ENE) 05:39:45
AIST 1 29 Mar 05:29:10 05:33:27 49° 284° (WNW) 05:37:45
CUBESAT XI-V 29 Mar 05:30:42 05:34:02 20° 62° (ENE) 05:37:30 437.345
O/OREOS (USA 219) 29 Mar 05:32:29 05:37:03 63° 299° (WNW) 05:41:38 437.305
AO-7 29 Mar 05:40:51 05:49:12 78° 107° (ESE) 05:57:30 29.400- 29.500
SO-50 29 Mar 05:40:52 05:43:58 16° 249° (WSW) 05:46:53 436.795
JAS-2 29 Mar 05:43:05 05:51:00 85° 104° (ESE) 05:58:21 435.910
ITAMSAT 1 29 Mar 05:43:12 05:46:03 15° 305° (NW) 05:48:43 435.822/435.867
HORYU 2 29 Mar 05:49:37 05:53:44 35° 293° (WNW) 05:57:49 437.375
STRAND 1 29 Mar 06:06:53 06:11:09 28° 63° (ENE) 06:15:31 437.568
VERMONT LUNAR 29 Mar 06:20:45 06:21:32 11° 158° (SSE) 06:22:23 437.305
CUTE-I 29 Mar 06:21:00 06:24:12 16° 87° (E) 06:27:35 437.470
Cubesat XI-IV 29 Mar 06:21:02 06:24:17 17° 87° (E) 06:27:43 437.490
AUBIESAT-1 29 Mar 06:25:41 06:28:57 22° 264° (W) 06:32:20 437.475
RS-15 29 Mar 06:28:12 06:38:07 34° 252° (WSW) 06:48:04 29.354- 29.394
PRISM 29 Mar 06:29:05 06:33:12 53° 71° (ENE) 06:37:20 437.425
CUSAT 1 29 Mar 06:47:50 06:49:02 11° 65° (ENE) 06:50:31 437.405
M-CUBED/EXP-1 PRIME 29 Mar 06:52:02 06:53:34 11° 271° (W) 06:54:56 437.505
PHONESAT 2.4 29 Mar 06:58:37 06:58:55 10° 156° (SSE) 06:59:17 2401.200-2431.200
CUBESAT XI-V 29 Mar 07:06:27 07:11:07 60° 260° (W) 07:15:48 437.345
O/OREOS (USA 219) 29 Mar 07:15:28 07:17:31 12° 322° (NW) 07:19:25 437.305
GONETS M04 29 Mar 07:22:02 07:30:55 89° 260° (W) 07:39:47
JAS-2 29 Mar 07:28:52 07:35:14 27° 305° (NW) 07:41:11 435.910
DANDE 29 Mar 07:33:33 07:36:25 21° 71° (ENE) 07:40:01 436.750
AO-7 29 Mar 07:34:19 07:41:23 32° 308° (NW) 07:48:18 29.400- 29.500
STRAND 1 29 Mar 07:45:10 07:50:09 48° 261° (W) 07:55:09 437.568
VERMONT LUNAR 29 Mar 07:56:00 07:58:31 20° 174° (S) 08:01:04 437.305
CUTE-I 29 Mar 07:59:39 08:05:01 80° 288° (WNW) 08:10:20 437.470
Cubesat XI-IV 29 Mar 07:59:45 08:05:07 79° 288° (WNW) 08:10:26 437.490
PRISM 29 Mar 08:06:09 08:09:03 17° 270° (W) 08:11:50 437.425
CUSAT 1 29 Mar 08:28:06 08:32:04 85° 259° (W) 08:37:24 437.405
PHONESAT 2.4 29 Mar 08:33:48 08:36:30 20° 172° (S) 08:39:12 2401.200-2431.200
CUTE 1.7 + AOD 2 29 Mar 08:46:04 08:47:27 12° 85° (E) 08:49:03 437.475
AAUSAT CUBESAT 2 29 Mar 09:11:17 09:13:07 13° 86° (E) 09:15:07 437.432
UNISAT 6 29 Mar 09:12:40 09:13:21 10° 56° (NE) 09:14:14 437.425
SEEDS 29 Mar 09:14:25 09:17:28 19° 90° (E) 09:20:37 437.485
DANDE 29 Mar 09:16:12 09:19:43 37° 262° (W) 09:24:15 436.750
BRITE-PL 29 Mar 09:18:18 09:22:14 40° 98° (E) 09:26:20 437.365/2234.400
GONETS M04 29 Mar 09:20:17 09:26:41 22° 282° (WNW) 09:32:45
TIGRISAT 29 Mar 09:21:55 09:23:38 12° 58° (ENE) 09:25:31 435.000
AO-7 29 Mar 09:29:55 09:31:39 11° 333° (NNW) 09:33:06 29.400- 29.500
VERMONT LUNAR 29 Mar 09:33:14 09:35:37 18° 191° (S) 09:38:00 437.305
Oscar 11 29 Mar 09:35:07 09:36:24 11° 85° (E) 09:37:54 145.826/435.025
COMPASS 1 29 Mar 09:36:55 09:40:29 26° 93° (E) 09:44:06 437.405
CINEMA 3 29 Mar 09:38:07 09:41:05 18° 90° (E) 09:44:15 145.822/145.860
CUTE-I 29 Mar 09:41:20 09:44:21 15° 306° (NW) 09:47:11 437.470
Cubesat XI-IV 29 Mar 09:41:28 09:44:28 15° 306° (NW) 09:47:17 437.490
HO-68 29 Mar 09:41:48 09:48:44 48° 99° (E) 09:55:39 435.675
UWE-3 29 Mar 09:49:00 09:49:52 11° 85° (E) 09:51:00 435.000/436.395/437.385
ANTELSAT 29 Mar 09:50:12 09:53:32 23° 63° (ENE) 09:56:57 437.575/2403.000
CUBEBUG 2 29 Mar 09:52:17 09:54:35 14° 88° (E) 09:57:06 437.445
QB50P1 29 Mar 09:52:29 09:54:32 14° 59° (ENE) 09:56:44 145.935-145.965
DUCHIFAT 1 29 Mar 09:54:25 09:56:31 14° 60° (ENE) 09:58:46 145.980
DOVE 4 29 Mar 09:56:02 10:00:11 46° 99° (E) 10:04:30 437.250
ZACube-1 29 Mar 09:58:07 09:59:04 11° 85° (E) 10:00:14 437.345
CANX-2 29 Mar 10:05:43 10:10:04 79° 104° (ESE) 10:14:24 2200.000
GOMX 1 29 Mar 10:06:08 10:10:23 84° 103° (ESE) 10:14:49 467.674
QB50P2 29 Mar 10:06:16 10:09:08 18° 62° (ENE) 10:12:07 145.880/145.840
BEESAT 3 29 Mar 10:10:16 10:12:38 15° 113° (ESE) 10:15:09 437.485
PHONESAT 2.4 29 Mar 10:11:32 10:14:14 20° 189° (S) 10:16:55 2401.200-2431.200
CUTE 1.7 + AOD 2 29 Mar 10:19:43 10:24:03 83° 285° (WNW) 10:28:22 437.475
DELFI C3 29 Mar 10:26:19 10:29:52 28° 94° (E) 10:33:26 145.870
POPSAT HIP 1 29 Mar 10:34:05 10:37:49 32° 67° (ENE) 10:41:35 437.405
BUGSAT 1 29 Mar 10:34:53 10:38:14 24° 65° (ENE) 10:41:36 437.445
UKube-1 29 Mar 10:40:04 10:43:11 20° 91° (E) 10:46:24 .
NANOSAT C BR1 29 Mar 10:44:33 10:48:28 40° 69° (ENE) 10:52:26 145.865
AIST 2 29 Mar 10:44:59 10:46:08 11° 110° (ESE) 10:47:30 435.215
AAUSAT CUBESAT 2 29 Mar 10:45:05 10:49:21 73° 286° (WNW) 10:53:33 437.432
UNISAT 6 29 Mar 10:45:09 10:49:25 74° 74° (ENE) 10:53:46 437.425
POLYITAN 1 29 Mar 10:48:31 10:52:31 44° 70° (ENE) 10:56:34 437.675
HUMSAT D 29 Mar 10:49:13 10:52:09 18° 90° (E) 10:55:12 437.325/437.525
SEEDS 29 Mar 10:49:26 10:53:36 49° 289° (WNW) 10:57:44 437.485
DX 1 29 Mar 10:49:40 10:53:17 25° 94° (E) 10:56:55 434.975-435.025
TIGRISAT 29 Mar 10:55:30 10:59:46 90° 227° (SW) 11:04:07 435.000
BRITE-PL 29 Mar 10:57:22 11:00:39 22° 295° (WNW) 11:03:55 437.365/2234.400
Oscar 11 29 Mar 11:08:53 11:13:18 86° 285° (WNW) 11:17:40 145.826/435.025
BEESAT 2 29 Mar 11:08:59 11:12:56 46° 122° (ESE) 11:16:58 435.950
COMPASS 1 29 Mar 11:12:22 11:16:16 35° 292° (WNW) 11:20:08 437.405
CINEMA 3 29 Mar 11:14:24 11:18:39 55° 288° (WNW) 11:23:05 145.822/145.860
FUNcube-1 29 Mar 11:18:57 11:23:18 66° 102° (ESE) 11:27:44 145.935
UWE-3 29 Mar 11:22:44 11:27:08 88° 103° (ESE) 11:31:39 435.000/436.395/437.385
QB50P1 29 Mar 11:25:40 11:29:53 79° 255° (WSW) 11:34:08 145.935-145.965
ANTELSAT 29 Mar 11:26:01 11:30:07 43° 262° (W) 11:34:16 437.575/2403.000
CUBEBUG 2 29 Mar 11:27:26 11:31:49 71° 286° (WNW) 11:36:18 437.445
DUCHIFAT 1 29 Mar 11:27:39 11:31:51 77° 257° (WSW) 11:36:05 145.980
VELOX 1 29 Mar 11:28:47 11:32:38 29° 95° (E) 11:36:29 145.980
HO-68 29 Mar 11:29:43 11:36:26 42° 299° (WNW) 11:43:03 435.675
CUBEBUG 1 29 Mar 11:30:19 11:32:44 15° 88° (E) 11:35:20 437.445
ZACube-1 29 Mar 11:31:45 11:36:08 89° 83° (E) 11:40:37 437.345
AISAT 29 Mar 11:33:19 11:37:17 33° 96° (E) 11:41:17 437.250
DOVE 4 29 Mar 11:34:28 11:37:46 21° 295° (WNW) 11:41:04 437.250
50 SAT 29 Mar 11:37:00 11:40:44 36° 97° (E) 11:44:30 437.505
QB50P2 29 Mar 11:40:34 11:44:43 54° 260° (W) 11:48:53 145.880/145.840
CANX-2 29 Mar 11:43:08 11:45:29 14° 300° (WNW) 11:47:40 2200.000
BEESAT 3 29 Mar 11:46:07 11:50:14 72° 310° (NW) 11:54:24 437.485
GOMX 1 29 Mar 11:46:07 11:48:03 13° 300° (WNW) 11:49:52 467.674
CUTE 1.7 + AOD 2 29 Mar 11:57:46 11:59:20 12° 302° (WNW) 12:00:43 437.475
DELFI C3 29 Mar 12:01:24 12:05:04 31° 292° (WNW) 12:08:40 145.870
ESTCUBE 1 29 Mar 12:02:12 12:06:20 34° 96° (E) 12:10:28 437.505/2401.250
BUGSAT 1 29 Mar 12:09:42 12:13:35 37° 263° (W) 12:17:25 437.445
POPSAT HIP 1 29 Mar 12:10:02 12:13:44 28° 265° (W) 12:17:24 437.405
UKube-1 29 Mar 12:15:27 12:19:39 48° 290° (WNW) 12:23:48 .
AIST 2 29 Mar 12:19:48 12:24:05 82° 127° (SE) 12:28:24 435.215
NANOSAT C BR1 29 Mar 12:21:07 12:24:31 23° 268° (W) 12:27:50 145.865
O/OREOS (USA 219) 29 Mar 12:21:46 12:23:39 12° 38° (NE) 12:25:40 437.305
YUBILEINY 29 Mar 12:22:53 12:26:51 15° 72° (ENE) 12:31:21 435.215
AAUSAT CUBESAT 2 29 Mar 12:23:51 12:24:16 10° 303° (WNW) 12:24:30 437.432
HUMSAT D 29 Mar 12:24:07 12:28:15 50° 288° (WNW) 12:32:24 437.325/437.525
UNISAT 6 29 Mar 12:24:50 12:26:52 13° 274° (W) 12:28:42 437.425
POLYITAN 1 29 Mar 12:25:29 12:28:42 20° 269° (W) 12:31:50 437.675
DX 1 29 Mar 12:25:37 12:29:39 37° 292° (WNW) 12:33:38 434.975-435.025
TIGRISAT 29 Mar 12:36:51 12:37:20 10° 276° (W) 12:37:35 435.000
Oscar 19 29 Mar 12:40:17 12:44:32 28° 63° (ENE) 12:48:54 437.125/150
Oscar 11 29 Mar 12:47:01 12:48:50 12° 302° (WNW) 12:50:31 145.826/435.025
BEESAT 2 29 Mar 12:47:35 12:51:16 29° 322° (NW) 12:54:56 435.950
FUNcube-1 29 Mar 12:56:25 12:59:14 17° 298° (WNW) 13:01:58 145.935
Gurwin Techsat 1B 29 Mar 12:57:02 12:59:25 13° 54° (NE) 13:02:01 435.225
UWE-3 29 Mar 13:01:02 13:03:08 13° 301° (WNW) 13:05:07 435.000/436.395/437.385
TISAT 1 29 Mar 13:04:55 13:08:40 31° 96° (E) 13:12:26 437.305
VELOX 1 29 Mar 13:05:15 13:09:15 34° 293° (WNW) 13:13:12 145.980
CUBEBUG 1 29 Mar 13:05:18 13:09:38 64° 287° (WNW) 13:13:53 437.445
AO-7 29 Mar 13:06:04 13:09:09 13° 32° (NNE) 13:12:31 29.400- 29.500
CUBEBUG 2 29 Mar 13:07:07 13:07:51 10° 303° (WNW) 13:08:22 437.445
ZACube-1 29 Mar 13:09:55 13:11:58 13° 301° (WNW) 13:13:51 437.345
AISAT 29 Mar 13:09:59 13:13:52 30° 294° (WNW) 13:17:41 437.250
50 SAT 29 Mar 13:12:13 13:15:31 24° 294° (WNW) 13:18:46 437.505
SPROUT 29 Mar 13:14:43 13:18:52 47° 99° (E) 13:23:01 437.525
HO-68 29 Mar 13:20:01 13:22:27 12° 321° (NW) 13:24:34 435.675
BEESAT 3 29 Mar 13:26:16 13:29:02 17° 332° (NNW) 13:31:44 437.485
ESTCUBE 1 29 Mar 13:39:12 13:43:11 30° 294° (WNW) 13:47:04 437.505/2401.250
ITAMSAT 1 29 Mar 13:45:06 13:49:48 36° 65° (ENE) 13:54:34 435.822/435.867
SWISSCUBE 29 Mar 13:49:07 13:52:24 19° 89° (E) 13:55:50 437.505
BEESAT 29 Mar 13:52:06 13:55:22 19° 89° (E) 13:58:46 436.000
O/OREOS (USA 219) 29 Mar 13:59:33 14:04:07 64° 61° (ENE) 14:08:37 437.305
AIST 2 29 Mar 13:59:52 14:03:13 21° 328° (NNW) 14:06:32 435.215
PCSat 29 Mar 14:02:25 14:03:46 11° 103° (ESE) 14:05:28 145.827
YUBILEINY 29 Mar 14:13:24 14:22:02 65° 93° (E) 14:30:47 435.215
JAS-2 29 Mar 14:16:56 14:21:08 17° 46° (NE) 14:25:45 435.910
Oscar 19 29 Mar 14:18:47 14:23:42 47° 261° (W) 14:28:40 437.125/150
BEESAT 2 29 Mar 14:29:53 14:30:45 10° 344° (NNW) 14:31:33 435.950
Gurwin Techsat 1B 29 Mar 14:33:17 14:38:34 71° 73° (ENE) 14:43:54 435.225
ITUPSAT 1 29 Mar 14:38:06 14:42:44 46° 99° (E) 14:47:22 437.325
TISAT 1 29 Mar 14:40:47 14:44:26 29° 294° (WNW) 14:48:02 437.305
SPROUT 29 Mar 14:51:26 14:54:42 21° 297° (WNW) 14:57:53 437.525
AO-7 29 Mar 14:52:21 14:59:46 39° 56° (NE) 15:07:16 29.400- 29.500
HORYU 2 29 Mar 15:14:59 15:19:10 43° 69° (ENE) 15:23:25 437.375
ITAMSAT 1 29 Mar 15:24:29 15:29:19 37° 264° (W) 15:34:08 435.822/435.867
SWISSCUBE 29 Mar 15:25:59 15:30:45 60° 289° (WNW) 15:35:27 437.505
BEESAT 29 Mar 15:28:57 15:33:42 61° 288° (WNW) 15:38:25 436.000
AIST 1 29 Mar 15:32:21 15:36:39 59° 77° (ENE) 15:40:53
KKS-1 29 Mar 15:36:37 15:40:45 37° 97° (E) 15:44:53 437.445
O/OREOS (USA 219) 29 Mar 15:40:06 15:43:05 17° 259° (W) 15:45:53 437.305
PCSat 29 Mar 15:40:57 15:46:19 69° 121° (ESE) 15:51:45 145.827
JAS-2 29 Mar 15:57:47 16:04:41 59° 68° (ENE) 16:12:17 435.910
STARS 29 Mar 16:08:25 16:12:42 50° 100° (E) 16:17:00 437.465
YUBILEINY 29 Mar 16:11:38 16:19:35 35° 297° (WNW) 16:27:27 435.215
Gurwin Techsat 1B 29 Mar 16:15:25 16:19:10 19° 272° (W) 16:22:46 435.225
ITUPSAT 1 29 Mar 16:16:27 16:20:26 26° 297° (WNW) 16:24:19 437.325
AO-7 29 Mar 16:44:04 16:52:17 62° 257° (WSW) 17:00:31 29.400- 29.500
BEESAT 3 29 Mar 16:47:15 16:48:41 12° 19° (NNE) 16:50:12 437.485
HORYU 2 29 Mar 16:52:27 16:56:03 23° 268° (W) 16:59:35 437.375
SWISSCUBE 29 Mar 17:07:01 17:07:44 10° 307° (NW) 17:08:12 437.505
BEESAT 29 Mar 17:09:49 17:10:41 10° 307° (NW) 17:11:18 436.000
AIST 1 29 Mar 17:11:19 17:13:53 15° 275° (W) 17:16:15
MOZHAYETS 4 29 Mar 17:12:19 17:16:09 25° 92° (E) 17:20:02
KKS-1 29 Mar 17:13:29 17:17:17 28° 295° (WNW) 17:21:02 437.445
AIST 2 29 Mar 17:22:44 17:23:56 11° 15° (NNE) 17:25:11 435.215
PCSat 29 Mar 17:25:33 17:30:14 28° 322° (NW) 17:34:54 145.827
JAS-2 29 Mar 17:43:47 17:50:10 35° 270° (W) 17:57:01 435.910
STARS 29 Mar 17:45:33 17:48:54 21° 297° (WNW) 17:52:10 437.465
CUTE-I 29 Mar 17:46:00 17:50:56 39° 66° (ENE) 17:55:55 437.470
Cubesat XI-IV 29 Mar 17:46:12 17:51:09 40° 66° (ENE) 17:56:10 437.490
BEESAT 2 29 Mar 17:47:26 17:50:32 20° 32° (NNE) 17:53:39 435.950
AUBIESAT-1 29 Mar 18:02:25 18:06:14 23° 96° (E) 18:10:06 437.475
SO-50 29 Mar 18:20:41 18:21:50 11° 108° (ESE) 18:23:15 436.795
BEESAT 3 29 Mar 18:24:05 18:27:56 36° 42° (NE) 18:31:45 437.485
M-CUBED/EXP-1 PRIME 29 Mar 18:26:32 18:31:08 42° 103° (ESE) 18:35:42 437.505
HO-68 29 Mar 18:31:16 18:34:41 15° 43° (NE) 18:38:22 435.675
GONETS M04 29 Mar 18:34:01 18:40:06 23° 78° (ENE) 18:46:31
AO-7 29 Mar 18:43:20 18:47:08 13° 280° (W) 18:50:20 29.400- 29.500
RS-15 29 Mar 18:44:58 18:54:01 33° 107° (ESE) 19:03:30 29.354- 29.394
MOZHAYETS 4 29 Mar 18:49:10 18:53:35 42° 291° (WNW) 18:57:56
BRITE-PL 29 Mar 18:58:46 18:59:31 10° 58° (ENE) 19:00:27 437.365/2234.400
CUBESAT XI-V 29 Mar 18:59:49 19:03:43 26° 93° (E) 19:07:37 437.345
AIST 2 29 Mar 19:00:06 19:03:53 29° 38° (NE) 19:07:39 435.215
PCSat 29 Mar 19:13:25 19:15:33 12° 347° (NNW) 19:17:38 145.827
BEESAT 2 29 Mar 19:25:03 19:29:14 84° 233° (SW) 19:33:21 435.950
CUTE-I 29 Mar 19:26:12 19:31:05 35° 265° (W) 19:35:57 437.470
Cubesat XI-IV 29 Mar 19:26:27 19:31:21 34° 265° (W) 19:36:13 437.490
CANX-2 29 Mar 19:29:30 19:31:08 12° 58° (ENE) 19:32:57 2200.000
AUBIESAT-1 29 Mar 19:36:36 19:41:20 54° 295° (WNW) 19:46:00 437.475
GOMX 1 29 Mar 19:42:08 19:44:55 17° 63° (ENE) 19:47:46 467.674
CUTE 1.7 + AOD 2 29 Mar 19:42:37 19:44:57 15° 60° (ENE) 19:47:26 437.475
PRISM 29 Mar 19:43:20 19:47:27 51° 100° (E) 19:51:31 437.425
STRAND 1 29 Mar 19:51:43 19:56:35 43° 98° (E) 20:01:27 437.568
SO-50 29 Mar 19:56:56 20:01:35 73° 125° (SE) 20:06:25 436.795
M-CUBED/EXP-1 PRIME 29 Mar 20:01:35 20:05:53 32° 300° (WNW) 20:10:06 437.505
BEESAT 3 29 Mar 20:02:14 20:05:58 33° 241° (WSW) 20:09:38 437.485
AAUSAT CUBESAT 2 29 Mar 20:06:04 20:08:30 16° 61° (ENE) 20:11:04 437.432
SEEDS 29 Mar 20:10:25 20:13:40 22° 64° (ENE) 20:17:01 437.485
HO-68 29 Mar 20:14:06 20:20:58 53° 64° (ENE) 20:27:57 435.675
GONETS M04 29 Mar 20:27:10 20:35:53 89° 280° (W) 20:44:44
COMPASS 1 29 Mar 20:32:00 20:35:37 29° 67° (ENE) 20:39:20 437.405
BRITE-PL 29 Mar 20:32:51 20:37:29 75° 75° (ENE) 20:41:49 437.365/2234.400
Oscar 11 29 Mar 20:33:17 20:35:48 16° 60° (ENE) 20:38:28 145.826/435.025
CUBESAT XI-V 29 Mar 20:36:57 20:41:19 40° 291° (WNW) 20:45:37 437.345
AIST 2 29 Mar 20:38:34 20:42:40 46° 239° (WSW) 20:46:42 435.215
CINEMA 3 29 Mar 20:44:00 20:47:21 24° 66° (ENE) 20:50:45 145.822/145.860
FUNcube-1 29 Mar 20:46:08 20:47:02 11° 57° (ENE) 20:48:07 145.935
UWE-3 29 Mar 20:49:46 20:51:55 14° 60° (ENE) 20:54:14 435.000/436.395/437.385
DANDE 29 Mar 20:54:00 20:54:47 11° 93° (E) 20:55:40 436.750
RS-15 29 Mar 20:54:29 21:05:25 81° 312° (NW) 21:16:41 29.354- 29.394
CUBEBUG 2 29 Mar 20:54:38 20:57:27 18° 63° (ENE) 21:00:24 437.445
ZACube-1 29 Mar 20:57:45 20:59:53 14° 60° (ENE) 21:02:11 437.345
PCSat 29 Mar 20:59:24 21:01:29 12° 13° (NNE) 21:03:38 145.827
CANX-2 29 Mar 21:02:13 21:06:28 90° 40° (NE) 21:10:47 2200.000
BEESAT 2 29 Mar 21:05:34 21:06:45 11° 250° (WSW) 21:07:44 435.950
DOVE 4 29 Mar 21:05:41 21:09:59 73° 73° (ENE) 21:14:10 437.250
AUBIESAT-1 29 Mar 21:13:56 21:15:14 11° 313° (NW) 21:16:20 437.475
CUTE 1.7 + AOD 2 29 Mar 21:16:09 21:20:23 72° 258° (WSW) 21:24:40 437.475
DELFI C3 29 Mar 21:17:49 21:21:21 29° 67° (ENE) 21:24:58 145.870
GOMX 1 29 Mar 21:18:23 21:22:47 58° 259° (W) 21:26:58 467.674
PRISM 29 Mar 21:19:36 21:22:37 19° 298° (WNW) 21:25:32 437.425
STRAND 1 29 Mar 21:31:13 21:35:40 30° 296° (WNW) 21:40:02 437.568
UKube-1 29 Mar 21:38:30 21:42:11 28° 65° (ENE) 21:45:56 .
SO-50 29 Mar 21:38:36 21:42:38 26° 328° (NNW) 21:46:43 436.795
AAUSAT CUBESAT 2 29 Mar 21:39:32 21:43:41 66° 259° (WSW) 21:47:53 437.432
CUSAT 1 29 Mar 21:43:23 21:46:06 87° 104° (ESE) 21:48:43 437.405
HUMSAT D 29 Mar 21:45:08 21:48:13 21° 64° (ENE) 21:51:24 437.325/437.525
SEEDS 29 Mar 21:45:15 21:49:16 42° 262° (W) 21:53:20 437.485
DX 1 29 Mar 21:48:47 21:52:46 36° 68° (ENE) 21:56:48 434.975-435.025
HO-68 29 Mar 22:02:24 22:08:59 37° 265° (W) 22:15:32 435.675
Oscar 11 29 Mar 22:07:13 22:11:31 70° 259° (WSW) 22:15:52 145.826/435.025
COMPASS 1 29 Mar 22:07:33 22:11:18 30° 265° (W) 22:15:03 437.405
BRITE-PL 29 Mar 22:14:17 22:16:34 13° 272° (W) 22:18:36 437.365/2234.400
FUNcube-1 29 Mar 22:18:35 22:22:43 82° 76° (ENE) 22:26:56 145.935
CINEMA 3 29 Mar 22:20:35 22:24:28 36° 263° (W) 22:28:19 145.822/145.860
UWE-3 29 Mar 22:23:51 22:27:59 71° 258° (WSW) 22:32:11 435.000/436.395/437.385
YUBILEINY 29 Mar 22:26:11 22:26:45 10° 37° (NE) 22:27:51 435.215
50 SAT 29 Mar 22:26:49 22:30:24 36° 69° (ENE) 22:34:03 437.505
GONETS M04 29 Mar 22:27:21 22:34:14 24° 304° (NW) 22:40:54
CUBEBUG 2 29 Mar 22:29:48 22:33:51 51° 261° (W) 22:37:57 437.445
CUBEBUG 1 29 Mar 22:29:58 22:33:17 22° 63° (ENE) 22:36:42 437.445
VELOX 1 29 Mar 22:29:59 22:34:10 42° 69° (ENE) 22:38:23 145.980
ZACube-1 29 Mar 22:31:38 22:35:46 72° 257° (WSW) 22:39:58 437.345
AISAT 29 Mar 22:34:44 22:39:00 48° 70° (ENE) 22:43:17 437.250
UNISAT 6 29 Mar 22:34:55 22:36:50 13° 86° (E) 22:38:59 437.425
DANDE 29 Mar 22:35:32 22:37:55 23° 288° (WNW) 22:40:06 436.750
PCSat 29 Mar 22:42:07 22:46:48 29° 38° (NE) 22:51:30 145.827
CANX-2 29 Mar 22:42:28 22:43:10 10° 276° (W) 22:43:37 2200.000
TIGRISAT 29 Mar 22:44:26 22:47:03 15° 88° (E) 22:49:52 435.000
DOVE 4 29 Mar 22:46:28 22:48:20 12° 273° (W) 22:50:01 437.250
DELFI C3 29 Mar 22:52:55 22:56:32 29° 266° (W) 23:00:07 145.870
ESTCUBE 1 29 Mar 23:05:21 23:09:45 50° 70° (ENE) 23:14:11 437.505/2401.250
QB50P1 29 Mar 23:08:44 23:10:41 13° 87° (E) 23:12:50 145.935-145.965
RS-15 29 Mar 23:09:31 23:19:41 39° 341° (NNW) 23:30:09 29.354- 29.394
DUCHIFAT 1 29 Mar 23:10:21 23:12:20 13° 87° (E) 23:14:31 145.980
ANTELSAT 29 Mar 23:13:58 23:17:58 29° 94° (E) 23:22:04 437.575/2403.000
UKube-1 29 Mar 23:14:16 23:18:16 35° 263° (W) 23:22:15 .
HUMSAT D 29 Mar 23:19:51 23:23:46 42° 262° (W) 23:27:43 437.325/437.525
SO-50 29 Mar 23:22:38 23:24:50 13° 352° (N) 23:27:02 436.795
QB50P2 29 Mar 23:22:55 23:25:54 19° 91° (E) 23:28:59 145.880/145.840
DX 1 29 Mar 23:25:24 23:29:08 26° 266° (W) 23:32:49 434.975-435.025
ISS 29 Mar 23:41:07 23:44:06 34° 146° (SE) 23:47:07 145.825
BUGSAT 1 29 Mar 23:48:27 23:51:40 23° 93° (E) 23:54:56 437.445
POPSAT HIP 1 29 Mar 23:51:00 23:54:52 34° 96° (E) 23:58:46 437.405
FUNcube-1 29 Mar 23:58:41 23:59:47 11° 275° (W) 00:00:39 145.935
TISAT 1 30 Mar 00:00:46 00:04:41 39° 69° (ENE) 00:08:38 437.305
NANOSAT C BR1 30 Mar 00:01:20 00:05:23 43° 98° (E) 00:09:26 145.865
50 SAT 30 Mar 00:02:20 00:05:28 22° 268° (W) 00:08:32 437.505
CUBEBUG 1 30 Mar 00:05:08 00:09:25 48° 261° (W) 00:13:41 437.445
POLYITAN 1 30 Mar 00:05:54 00:10:03 49° 100° (E) 00:14:11 437.675
VELOX 1 30 Mar 00:07:18 00:10:56 24° 267° (W) 00:14:29 145.980
UNISAT 6 30 Mar 00:09:43 00:14:17 84° 285° (WNW) 00:18:56 437.425
SPROUT 30 Mar 00:12:25 00:16:38 59° 72° (ENE) 00:20:52 437.525
AISAT 30 Mar 00:12:29 00:15:54 21° 269° (W) 00:19:13 437.250
ITUPSAT 1 30 Mar 00:13:53 00:16:07 14° 56° (NE) 00:18:33 437.325
YUBILEINY 30 Mar 00:18:54 00:27:03 40° 66° (ENE) 00:35:13 435.215
TIGRISAT 30 Mar 00:19:48 00:24:20 70° 287° (WNW) 00:28:57 435.000
PCSat 30 Mar 00:25:18 00:30:42 68° 240° (WSW) 00:36:05 145.827
QB50P1 30 Mar 00:42:54 00:47:08 70° 286° (WNW) 00:51:20 145.935-145.965
ESTCUBE 1 30 Mar 00:43:28 00:46:57 21° 269° (W) 00:50:20 437.505/2401.250
DUCHIFAT 1 30 Mar 00:44:31 00:48:43 69° 286° (WNW) 00:52:54 145.980
ANTELSAT 30 Mar 00:50:38 00:54:49 36° 292° (WNW) 00:59:02 437.575/2403.000
QB50P2 30 Mar 00:58:00 01:02:07 49° 289° (WNW) 01:06:13 145.880/145.840
SWISSCUBE 30 Mar 00:59:04 01:03:20 33° 66° (ENE) 01:07:41 437.505
BEESAT 30 Mar 01:01:59 01:06:13 33° 66° (ENE) 01:10:32 436.000
SO-50 30 Mar 01:04:38 01:07:23 15° 16° (NNE) 01:10:12 436.795
ISS 30 Mar 01:17:10 01:20:24 63° 344° (NNW) 01:23:38 145.825
BUGSAT 1 30 Mar 01:23:34 01:27:18 36° 291° (WNW) 01:30:59 437.445
RS-15 30 Mar 01:25:30 01:35:39 37° 15° (NNE) 01:46:16 29.354- 29.394
POPSAT HIP 1 30 Mar 01:27:05 01:30:41 27° 294° (WNW) 01:34:14 437.405
STARS 30 Mar 01:36:53 01:37:33 10° 56° (NE) 01:38:25 437.465
TISAT 1 30 Mar 01:37:14 01:40:39 23° 267° (W) 01:44:00 437.305
NANOSAT C BR1 30 Mar 01:37:43 01:41:01 22° 296° (WNW) 01:44:15 145.865
POLYITAN 1 30 Mar 01:42:33 01:45:41 20° 297° (WNW) 01:48:45 437.675
UNISAT 6 30 Mar 01:48:20 01:50:28 13° 302° (WNW) 01:52:25 437.425
ITUPSAT 1 30 Mar 01:48:30 01:53:20 81° 72° (ENE) 01:58:12 437.325
SPROUT 30 Mar 01:50:25 01:53:10 16° 271° (W) 01:55:46 437.525
TIGRISAT 30 Mar 01:59:10 02:00:21 11° 304° (NW) 02:01:21 435.000
PCSat 30 Mar 02:11:41 02:13:15 11° 257° (WSW) 02:14:29 145.827
YUBILEINY 30 Mar 02:15:44 02:24:19 56° 269° (W) 02:32:45 435.215
Oscar 19 30 Mar 02:26:10 02:31:09 46° 98° (E) 02:36:08 437.125/150
SWISSCUBE 30 Mar 02:36:47 02:41:12 35° 264° (W) 02:45:36 437.505
KKS-1 30 Mar 02:38:20 02:42:39 54° 71° (ENE) 02:47:01 437.445
BEESAT 30 Mar 02:39:39 02:44:04 35° 264° (W) 02:48:28 436.000
SO-50 30 Mar 02:44:43 02:49:19 37° 39° (NE) 02:53:55 436.795
Gurwin Techsat 1B 30 Mar 02:46:23 02:50:18 21° 89° (E) 02:54:22 435.225
ISS 30 Mar 02:53:55 02:57:05 47° 4° (N) 03:00:15 145.825
STARS 30 Mar 03:08:56 03:13:17 71° 73° (ENE) 03:17:40 437.465
ITUPSAT 1 30 Mar 03:29:19 03:31:56 14° 274° (W) 03:34:21 437.325
ITAMSAT 1 30 Mar 03:32:53 03:38:02 60° 101° (E) 03:43:09 435.822/435.867
RS-15 30 Mar 03:39:01 03:50:23 71° 45° (NE) 04:02:18 29.354- 29.394
M-CUBED/EXP-1 PRIME 30 Mar 03:46:18 03:48:36 15° 51° (NE) 03:51:08 437.505
Oscar 19 30 Mar 04:05:53 04:10:20 29° 297° (WNW) 04:14:42 437.125/150
AIST 1 30 Mar 04:06:03 04:09:50 29° 90° (E) 04:13:40
O/OREOS (USA 219) 30 Mar 04:15:42 04:19:51 35° 107° (ESE) 04:24:04 437.305
YUBILEINY 30 Mar 04:16:12 04:19:15 12° 290° (WNW) 04:21:41 435.215
KKS-1 30 Mar 04:16:29 04:19:40 19° 270° (W) 04:22:45 437.445
MOZHAYETS 4 30 Mar 04:17:47 04:22:01 37° 68° (ENE) 04:26:19
SO-50 30 Mar 04:25:15 04:30:01 46° 239° (WSW) 04:34:42 436.795
Gurwin Techsat 1B 30 Mar 04:25:31 04:30:47 63° 289° (WNW) 04:36:02 435.225
ISS 30 Mar 04:30:24 04:33:38 77° 206° (SSW) 04:36:52 145.825
GONETS M04 30 Mar 04:37:25 04:41:59 15° 46° (NE) 04:46:58
HORYU 2 30 Mar 04:38:47 04:43:12 51° 100° (E) 04:47:36 437.375
AO-7 30 Mar 04:41:18 04:48:49 38° 96° (E) 04:56:26 29.400- 29.500
STARS 30 Mar 04:47:58 04:50:21 14° 273° (W) 04:52:32 437.465
JAS-2 30 Mar 04:48:26 04:55:43 41° 93° (E) 05:02:32 435.910
AUBIESAT-1 30 Mar 04:53:47 04:57:46 47° 64° (ENE) 05:02:08 437.475
